• In Deutschland
  • Länderverzeichnis
  • Für 7 Tage
  • Wassertemperatur
  • Satellitenkarten
  • Wetterkarte
  • Widgets
  • user-avatar
    Anmelden

    Stündliche Wetter Katerini

    Heute, 16 Dezember, Samstag

    Zeit Temperatur Niederschläge Wind Luftdruck Luftfeuchtigkeit
    00:00 +12°C° 0 mm 3 m/S 755 mmHg 79%
    01:00 +11°C° 0 mm 3 m/S 755 mmHg 81%
    02:00 +12°C° 0 mm 3 m/S 754 mmHg 83%
    03:00 +12°C° 0 mm 3 m/S 754 mmHg 83%
    04:00 +12°C° 0 mm 4 m/S 754 mmHg 84%
    05:00 +12°C° 0 mm 4 m/S 754 mmHg 84%
    06:00 +12°C° 0 mm 4 m/S 754 mmHg 85%
    07:00 +12°C° 0 mm 4 m/S 753 mmHg 85%
    08:00 +12°C° 0 mm 4 m/S 753 mmHg 86%
    09:00 +13°C° 0 mm 4 m/S 753 mmHg 80%
    10:00 +14°C° 0 mm 4 m/S 753 mmHg 75%
    11:00 +17°C° 0 mm 4 m/S 753 mmHg 70%
    12:00 +17°C° 0 mm 4 m/S 753 mmHg 66%
    13:00 +18°C° 0 mm 4 m/S 752 mmHg 63%
    14:00 +19°C° 0 mm 4 m/S 752 mmHg 59%
    15:00 +18°C° 0,1 mm 4 m/S 752 mmHg 63%
    16:00 +17°C° 0,1 mm 4 m/S 752 mmHg 67%
    17:00 +15°C° 0,1 mm 4 m/S 752 mmHg 71%
    18:00 +16°C° 0,3 mm 3 m/S 752 mmHg 73%
    19:00 +15°C° 0,3 mm 2 m/S 752 mmHg 76%
    20:00 +15°C° 0,3 mm 2 m/S 752 mmHg 78%
    21:00 +15°C° 0,2 mm 2 m/S 752 mmHg 79%
    22:00 +14°C° 0,2 mm 2 m/S 752 mmHg 81%
    23:00 +14°C° 0,2 mm 1 m/S 752 mmHg 82%

    Morgen, 17 Dezember, Sonntag

    Zeit Temperatur Niederschläge Wind Luftdruck Luftfeuchtigkeit
    00:00 +14°C° 0,1 mm 2 m/S 752 mmHg 84%
    01:00 +14°C° 0,1 mm 2 m/S 752 mmHg 86%
    02:00 +13°C° 0,1 mm 2 m/S 752 mmHg 87%
    03:00 +13°C° 0,1 mm 2 m/S 752 mmHg 88%
    04:00 +13°C° 0,1 mm 2 m/S 752 mmHg 88%
    05:00 +12°C° 0,1 mm 2 m/S 752 mmHg 89%
    06:00 +12°C° 0,1 mm 2 m/S 752 mmHg 88%
    07:00 +12°C° 0,1 mm 2 m/S 752 mmHg 87%
    08:00 +12°C° 0,1 mm 2 m/S 753 mmHg 87%
    09:00 +13°C° 0 mm 2 m/S 753 mmHg 80%
    10:00 +13°C° 0 mm 3 m/S 753 mmHg 74%
    11:00 +14°C° 0 mm 3 m/S 753 mmHg 67%
    12:00 +14°C° 0,1 mm 3 m/S 753 mmHg 62%
    13:00 +16°C° 0,1 mm 3 m/S 753 mmHg 57%
    14:00 +16°C° 0,1 mm 3 m/S 753 mmHg 52%
    15:00 +14°C° 0,2 mm 3 m/S 754 mmHg 55%
    16:00 +13°C° 0,2 mm 3 m/S 754 mmHg 58%
    17:00 +12°C° 0,2 mm 3 m/S 755 mmHg 61%
    18:00 +11°C° 0,1 mm 3 m/S 755 mmHg 63%
    19:00 +11°C° 0,1 mm 3 m/S 756 mmHg 64%
    20:00 +10°C° 0,1 mm 3 m/S 757 mmHg 66%
    21:00 +10°C° 0 mm 3 m/S 757 mmHg 67%
    22:00 +9°C° 0 mm 3 m/S 758 mmHg 68%
    23:00 +9°C° 0 mm 3 m/S 759 mmHg 69%

    übermorgen, 18 Dezember, Montag

    Zeit Temperatur Niederschläge Wind Luftdruck Luftfeuchtigkeit
    00:00 +8°C° 0 mm 3 m/S 759 mmHg 70%
    01:00 +8°C° 0 mm 3 m/S 759 mmHg 71%
    02:00 +7°C° 0 mm 3 m/S 759 mmHg 72%
    03:00 +7°C° 0 mm 3 m/S 759 mmHg 73%
    04:00 +7°C° 0 mm 2 m/S 759 mmHg 74%
    05:00 +6°C° 0 mm 2 m/S 759 mmHg 76%
    06:00 +6°C° 0 mm 2 m/S 760 mmHg 77%
    07:00 +6°C° 0 mm 2 m/S 760 mmHg 77%
    08:00 +6°C° 0 mm 2 m/S 760 mmHg 78%
    09:00 +7°C° 0 mm 2 m/S 760 mmHg 73%
    10:00 +8°C° 0 mm 2 m/S 760 mmHg 68%
    11:00 +9°C° 0 mm 2 m/S 760 mmHg 64%
    12:00 +9°C° 0 mm 2 m/S 760 mmHg 62%
    13:00 +9°C° 0 mm 3 m/S 759 mmHg 60%
    14:00 +10°C° 0 mm 3 m/S 759 mmHg 59%
    15:00 +9°C° 0,2 mm 3 m/S 759 mmHg 62%
    16:00 +9°C° 0,2 mm 3 m/S 759 mmHg 66%
    17:00 +8°C° 0,2 mm 3 m/S 759 mmHg 69%
    18:00 +7°C° 0,2 mm 3 m/S 760 mmHg 71%
    19:00 +6°C° 0,2 mm 4 m/S 760 mmHg 72%
    20:00 +5°C° 0,2 mm 4 m/S 761 mmHg 74%
    21:00 +5°C° 0 mm 4 m/S 761 mmHg 74%
    22:00 +4°C° 0 mm 4 m/S 762 mmHg 75%
    23:00 +4°C° 0 mm 4 m/S 762 mmHg 75%

    19 Dezember, Dienstag

    Zeit Temperatur Niederschläge Wind Luftdruck Luftfeuchtigkeit
    00:00 +4°C° 0 mm 4 m/S 762 mmHg 75%
    01:00 +3°C° 0 mm 4 m/S 763 mmHg 75%
    02:00 +3°C° 0 mm 4 m/S 763 mmHg 75%
    03:00 +1°C° 0 mm 4 m/S 763 mmHg 74%
    04:00 +1°C° 0 mm 4 m/S 764 mmHg 73%
    05:00 +1°C° 0 mm 4 m/S 764 mmHg 73%
    06:00 +2°C° 0 mm 3 m/S 765 mmHg 72%
    07:00 +1°C° 0 mm 3 m/S 765 mmHg 72%
    08:00 +1°C° 0 mm 3 m/S 766 mmHg 71%
    09:00 +2°C° 0 mm 3 m/S 766 mmHg 66%
    10:00 +3°C° 0 mm 3 m/S 766 mmHg 61%
    11:00 +4°C° 0 mm 3 m/S 767 mmHg 55%
    12:00 +5°C° 0 mm 3 m/S 766 mmHg 53%
    13:00 +5°C° 0 mm 3 m/S 766 mmHg 52%
    14:00 +7°C° 0 mm 3 m/S 766 mmHg 50%
    15:00 +5°C° 0 mm 3 m/S 766 mmHg 53%
    16:00 +5°C° 0 mm 3 m/S 766 mmHg 56%
    17:00 +4°C° 0 mm 3 m/S 766 mmHg 60%
    18:00 +4°C° 0 mm 3 m/S 767 mmHg 62%
    19:00 +3°C° 0 mm 3 m/S 767 mmHg 64%
    20:00 +3°C° 0 mm 3 m/S 768 mmHg 66%
    21:00 +3°C° 0,1 mm 3 m/S 768 mmHg 67%
    22:00 +3°C° 0,1 mm 3 m/S 768 mmHg 68%
    23:00 +2°C° 0,1 mm 3 m/S 768 mmHg 69%

    20 Dezember, Mittwoch

    Zeit Temperatur Niederschläge Wind Luftdruck Luftfeuchtigkeit
    00:00 +2°C° 0,1 mm 3 m/S 769 mmHg 69%
    01:00 +2°C° 0,1 mm 3 m/S 769 mmHg 70%
    02:00 +2°C° 0,1 mm 3 m/S 769 mmHg 71%
    03:00 +2°C° 0,1 mm 3 m/S 769 mmHg 72%
    04:00 +1°C° 0,1 mm 3 m/S 769 mmHg 73%
    05:00 +1°C° 0,1 mm 3 m/S 769 mmHg 74%
    06:00 +1°C° 0,1 mm 3 m/S 769 mmHg 74%
    07:00 +1°C° 0,1 mm 3 m/S 770 mmHg 74%
    08:00 +1°C° 0,1 mm 3 m/S 770 mmHg 74%
    09:00 +2°C° 0 mm 3 m/S 770 mmHg 70%
    10:00 +3°C° 0 mm 3 m/S 771 mmHg 66%
    11:00 +3°C° 0 mm 4 m/S 771 mmHg 62%
    12:00 +4°C° 0 mm 4 m/S 770 mmHg 60%
    13:00 +4°C° 0 mm 4 m/S 770 mmHg 58%
    14:00 +5°C° 0 mm 4 m/S 770 mmHg 56%
    15:00 +4°C° 0 mm 3 m/S 770 mmHg 57%
    16:00 +4°C° 0 mm 3 m/S 770 mmHg 59%
    17:00 +3°C° 0 mm 3 m/S 770 mmHg 61%
    18:00 +3°C° 0 mm 3 m/S 770 mmHg 63%
    19:00 +2°C° 0 mm 3 m/S 771 mmHg 64%
    20:00 +2°C° 0 mm 3 m/S 771 mmHg 66%
    21:00 +1°C° 0 mm 3 m/S 771 mmHg 67%
    22:00 +1°C° 0 mm 3 m/S 771 mmHg 67%
    23:00 +1°C° 0 mm 3 m/S 771 mmHg 67%

    21 Dezember, Donnerstag

    Zeit Temperatur Niederschläge Wind Luftdruck Luftfeuchtigkeit
    00:00 +2°C° 0 mm 2 m/S 771 mmHg 67%
    01:00 +1°C° 0 mm 2 m/S 771 mmHg 67%
    02:00 +1°C° 0 mm 2 m/S 771 mmHg 66%
    03:00 +1°C° 0 mm 2 m/S 770 mmHg 65%
    04:00 +1°C° 0 mm 2 m/S 770 mmHg 65%
    05:00 +1°C° 0 mm 2 m/S 770 mmHg 64%
    06:00 +1°C° 0 mm 2 m/S 770 mmHg 63%
    07:00 +1°C° 0 mm 2 m/S 770 mmHg 61%
    08:00 +1°C° 0 mm 2 m/S 770 mmHg 60%
    09:00 +3°C° 0 mm 2 m/S 770 mmHg 55%
    10:00 +4°C° 0 mm 2 m/S 770 mmHg 50%
    11:00 +6°C° 0 mm 2 m/S 770 mmHg 44%
    12:00 +7°C° 0 mm 2 m/S 769 mmHg 42%
    13:00 +8°C° 0 mm 2 m/S 769 mmHg 40%
    14:00 +9°C° 0 mm 2 m/S 768 mmHg 38%
    15:00 +9°C° 0 mm 1 m/S 768 mmHg 42%
    16:00 +8°C° 0 mm 1 m/S 768 mmHg 46%
    17:00 +7°C° 0 mm 1 m/S 768 mmHg 50%
    18:00 +6°C° 0 mm 2 m/S 768 mmHg 52%
    19:00 +6°C° 0 mm 2 m/S 768 mmHg 53%
    20:00 +5°C° 0 mm 2 m/S 769 mmHg 54%
    21:00 +4°C° 0 mm 3 m/S 769 mmHg 56%
    22:00 +4°C° 0 mm 3 m/S 769 mmHg 57%
    23:00 +4°C° 0 mm 3 m/S 769 mmHg 59%
    Mehr zeigen

    XHprof extension not loaded